STARLINK-11532

decayed
NORAD ID: 62596 Int'l Des: 2025-008 Owner: SPXS Country: US Constellation: starlink
LEOCIRCULAR
グループ

STARLINK-11532について

説明を読み込み中...

高度履歴

Altitude vs Time

uPlot chart will show altitude changes over time

軌道要素

1 62596U 25008K 25214.25002315 .04136349 89309-5 19453-2 0 9993
2 62596 42.9852 1.0851 0010969 301.4257 221.7139 16.20457176 32630
Epoch: Aug 2, 2025 • Age: 1119 hours

現在のステータス

Position data unavailable
打ち上げ日 Jan 13, 2025
運用期間 0.6 years
落下予定日 Aug 2, 2025
タイプ internet

技術仕様

分類 Payload
質量 960.00 kg
乾燥質量 910.00 kg
総質量 960.00 kg
長さ 0.30 m
直径 4.10 m
スパン 29.00 m
形状 Box + pan
製造者 SPXS
バスタイプ Starlink V2MD
フェーズステータス Unknown Transfer Status
所有者/国 SPXS/US

大規模コンステレーション

Loading constellations...